Wind_Speed
10 10 10 11 12 12 13 13 15 16 15 12 10 10 9 9 11 12 12 15 20 23 23 22 21 21 20 21 22 24 23 17 19 29 29 25 15 10 13 12 8 7 9 9 9 10 12 15 14 11 10 13 20 18 15 15 14 10 6 5 4 3 3 3 5 6 7 5 4 4 6 9 6 6 9 8 10 13 12 13 12 10 10 8 8 8 7 7
9 10 10 11 12 12 13 12 12 14 15 15 13 9 7 5 7 9 11 16 21 22 21 19 16 13 13 15 17 21 21 18 26 32 27 20 16 13 13 12 8 6 7 7 6 7 11 15 11 9 16 21 18 14 14 15 17 11 3 5 4 2 2 3 9 8 7 9 9 9 8 7 5 4 5 3 6 10 11 10 9 9 9 9 9 9 9 9
9 9 10 11 12 13 14 12 11 10 10 12 13 12 10 8 5 6 10 15 17 16 13 10 7 4 5 8 11 15 15 16 24 30 26 20 20 17 14 14 11 8 5 6 6 6 10 15 12 14 28 27 19 21 21 15 14 11 6 6 1 3 6 7 12 12 12 18 15 10 7 6 6 4 5 6 7 9 7 6 7 8 8 8 9 9 9 9
9 9 10 11 11 13 14 13 12 10 9 8 10 11 11 15 16 12 7 12 13 10 7 3 3 6 7 7 4 6 9 16 24 30 24 20 21 18 14 14 14 11 6 7 8 9 11 15 19 26 34 24 21 28 21 13 11 9 6 5 2 7 8 7 15 17 17 19 15 12 10 8 6 5 6 6 6 6 4 5 6 7 7 8 8 8 9 8
9 9 9 10 10 10 9 9 9 9 9 8 9 9 8 13 19 21 16 7 9 14 14 12 11 10 12 11 7 8 4 8 19 26 23 21 20 18 14 12 13 10 8 9 10 12 12 18 27 31 27 14 16 22 16 15 17 11 8 9 8 10 8 7 17 18 16 16 15 13 8 6 6 6 5 4 4 2 3 6 6 6 6 7 7 7 7 7
8 8 9 8 8 8 6 6 7 8 8 8 8 7 6 9 15 20 23 23 17 10 7 10 11 10 8 8 4 1 8 6 16 24 23 21 18 18 15 11 11 9 7 9 11 12 14 22 28 24 18 13 15 14 10 14 16 10 8 12 14 14 12 11 16 15 14 16 12 9 8 8 8 8 7 7 8 5 5 6 5 5 5 5 6 5 6 6
7 7 8 8 7 6 6 6 6 7 8 8 7 6 5 6 11 15 19 21 23 21 18 14 10 9 13 14 15 24 30 18 19 21 21 21 16 16 17 13 12 10 7 8 10 14 19 27 32 25 17 13 15 16 22 28 23 14 7 11 15 16 15 12 14 13 12 14 11 10 10 8 7 6 6 7 8 6 5 4 4 4 3 4 4 4 5 7
6 7 8 7 6 6 6 6 6 7 8 9 8 9 9 7 11 9 12 13 15 18 22 23 22 20 18 16 22 37 37 24 21 20 18 21 15 13 17 16 12 8 11 15 17 22 26 29 30 24 16 12 15 16 24 29 22 12 7 9 13 15 15 13 14 13 12 14 12 11 10 7 7 6 4 5 5 4 3 3 3 3 2 2 2 3 5 7
8 9 9 8 7 7 6 6 7 7 7 9 10 11 13 11 12 10 7 6 8 12 15 16 14 10 8 7 19 29 25 20 20 18 17 19 16 10 10 13 13 12 18 19 15 14 16 18 18 21 21 17 17 12 11 13 8 6 10 14 15 15 15 14 14 14 14 12 9 8 8 6 7 5 3 3 2 1 1 1 1 1 1 1 3 4 5 6
11 11 11 10 8 8 7 8 8 8 8 9 10 12 14 14 11 9 6 4 6 6 5 4 3 2 5 12 25 20 14 19 18 14 17 19 19 16 14 13 10 11 14 14 10 9 15 25 30 34 31 21 17 15 14 13 11 16 22 22 19 15 13 13 14 12 9 7 6 6 3 2 3 1 1 3 1 1 1 2 2 2 2 3 4 5 5 4
13 12 12 10 9 9 9 9 10 10 11 11 11 13 16 18 18 14 9 7 9 10 10 9 8 10 16 28 35 19 12 19 19 16 17 17 20 23 24 20 15 15 19 26 29 29 33 36 32 26 21 21 23 24 24 23 23 25 25 21 16 15 13 10 10 7 5 5 6 4 1 1 1 0 2 3 1 3 3 4 4 4 4 4 5 6 5 4
12 12 11 10 10 9 9 10 11 11 12 11 11 13 19 22 21 17 16 17 20 24 22 20 19 18 23 36 37 21 16 20 21 21 18 15 16 18 20 18 17 18 18 26 31 27 25 18 13 14 17 23 19 16 20 23 25 22 17 12 8 10 9 7 5 5 4 2 1 4 3 3 3 2 3 2 2 4 5 5 6 6 6 6 6 5 4 5
11 11 10 9 8 7 8 9 10 11 11 10 9 12 17 17 17 15 16 19 21 19 12 12 11 7 16 29 26 19 19 20 21 23 22 19 18 18 20 18 17 17 16 24 25 18 16 11 17 28 27 21 12 13 21 19 19 14 9 7 3 5 5 6 6 5 3 1 4 3 3 5 5 3 4 3 4 5 6 6 6 6 6 6 6 6 5 6
16 14 13 11 9 7 6 8 10 11 11 12 13 14 15 13 14 16 16 15 12 10 9 13 11 10 20 22 17 18 17 16 18 24 26 25 23 24 25 25 24 24 23 29 29 25 25 23 30 35 29 26 24 23 18 9 9 5 3 4 3 3 2 5 7 6 2 1 3 2 1 4 7 3 4 4 5 5 7 6 7 7 6 7 6 7 7 7
21 20 19 16 14 11 8 8 10 12 13 12 13 15 14 11 9 13 17 16 15 17 19 20 19 24 30 21 14 16 14 14 17 22 26 25 27 29 29 31 32 32 31 33 33 32 30 28 33 32 25 28 26 16 7 4 4 3 2 3 4 3 2 6 6 6 2 1 4 4 1 5 5 3 3 5 6 6 8 8 8 8 7 8 8 8 9 9
20 19 18 17 16 15 13 11 9 10 9 9 11 15 15 12 10 12 15 16 18 17 17 19 19 23 23 14 12 14 13 15 15 17 20 22 25 27 30 31 30 30 29 29 25 21 22 27 30 25 17 15 10 6 5 4 4 4 4 2 3 3 2 4 3 8 6 1 4 5 1 4 3 3 1 5 7 8 10 10 10 10 10 9 10 10 11 11
14 12 12 13 13 12 13 14 12 9 7 9 14 17 16 14 14 16 16 15 16 14 16 19 18 19 17 9 9 12 13 14 12 12 14 15 18 19 20 19 18 18 17 18 14 12 17 21 17 11 10 8 4 4 6 4 3 4 4 3 1 1 2 3 2 8 10 3 3 4 1 5 6 6 3 5 7 9 11 12 11 11 12 12 12 12 13 13
7 6 7 8 9 10 10 12 15 13 10 11 14 15 13 11 10 14 11 5 6 6 9 11 8 10 12 8 9 11 10 10 10 11 10 9 10 10 10 8 9 9 10 11 10 13 16 15 10 4 7 8 5 5 5 2 2 3 3 3 1 1 0 2 2 6 10 5 4 5 2 6 9 9 6 5 8 10 12 12 12 12 13 14 14 14 14 14
3 4 5 6 7 9 9 12 18 18 17 16 16 18 18 19 17 15 15 12 10 8 4 11 12 8 7 8 13 13 10 9 9 8 8 9 9 8 8 7 6 6 7 7 10 15 12 10 10 5 5 6 5 5 2 3 6 7 5 4 4 2 1 3 4 4 5 3 4 4 3 7 9 10 8 6 8 11 13 14 14 14 15 15 16 16 16 16
2 3 4 5 7 9 11 16 21 21 21 19 17 16 15 19 18 18 31 34 28 21 13 17 22 17 12 8 10 13 13 12 9 6 5 7 8 8 8 6 7 11 10 3 5 12 11 9 7 3 4 7 7 5 1 2 6 8 6 5 4 2 1 3 4 4 4 1 2 2 3 7 8 10 10 7 8 11 14 15 16 16 16 17 17 18 18 17
3 5 5 6 7 10 13 15 17 15 11 8 7 5 4 8 10 13 28 33 28 27 24 23 23 21 18 12 8 8 10 14 12 9 6 4 5 3 7 5 7 10 9 3 3 7 10 9 5 4 5 7 5 2 1 4 7 7 6 5 4 1 1 3 3 5 5 1 3 2 4 9 8 9 11 8 8 12 13 14 15 16 16 17 18 19 19 18
6 6 7 9 11 12 12 12 10 8 6 5 7 9 11 16 19 22 27 23 21 25 24 22 22 21 19 17 13 7 9 14 15 15 12 7 6 4 8 12 9 4 6 5 4 5 9 6 5 7 6 3 3 2 4 7 7 6 4 4 2 1 3 4 3 4 5 1 3 4 5 9 9 8 12 11 10 12 13 13 14 15 16 17 17 17 18 18
7 8 10 14 16 17 16 14 13 11 11 14 19 24 26 26 25 26 26 18 15 19 20 21 22 21 18 17 16 12 16 16 15 19 17 13 14 13 14 14 8 4 7 7 5 5 6 2 6 6 3 1 4 5 6 7 6 4 4 3 0 1 1 2 2 5 5 1 1 4 4 7 6 5 9 9 9 12 13 14 15 15 17 17 17 17 17 17
6 8 12 15 16 17 17 16 17 17 19 22 26 26 23 21 19 18 17 13 9 12 16 18 20 22 18 16 14 15 22 21 18 20 18 14 13 12 13 10 7 7 6 8 12 11 5 3 5 4 2 3 5 8 8 6 4 3 2 3 0 1 1 3 3 4 4 2 2 4 5 4 4 4 5 4 3 8 10 12 13 12 13 14 13 13 13 14
6 7 11 13 13 13 13 13 14 14 16 18 17 14 11 10 9 7 7 8 5 8 12 12 14 18 16 14 10 9 17 20 22 22 16 14 11 6 8 7 7 4 2 4 12 11 4 3 3 3 5 6 6 7 6 3 3 3 1 2 2 2 1 3 5 4 4 4 3 5 5 4 5 4 6 4 4 6 7 9 11 10 10 10 10 10 9 10
6 7 9 11 11 10 9 10 11 10 11 10 5 4 5 5 5 4 3 5 4 7 9 8 9 11 14 16 8 3 8 10 17 22 16 12 11 7 6 6 7 4 4 2 7 5 2 5 5 5 5 7 7 5 2 1 4 2 1 2 4 3 1 2 3 3 1 3 3 4 3 3 6 5 6 4 5 7 8 9 10 9 8 8 7 7 8 7
7 6 8 9 10 10 8 8 10 10 8 6 5 1 2 3 4 3 3 5 4 4 6 7 6 8 12 17 10 4 3 3 7 19 20 13 9 8 6 4 5 4 1 3 5 2 2 5 7 6 6 7 6 3 2 2 4 0 1 3 3 2 1 0 3 3 1 2 3 4 4 1 5 5 5 4 4 7 7 9 10 9 7 6 6 6 7 7
9 7 7 8 9 9 8 7 10 10 7 7 6 3 1 2 1 2 4 5 3 3 4 5 4 8 9 14 17 12 6 4 3 11 20 17 9 10 9 4 4 4 3 4 4 1 2 4 5 4 6 5 2 1 2 2 3 2 2 3 1 1 2 2 3 2 1 2 3 4 3 1 4 6 5 3 3 6 7 7 9 8 7 6 6 6 6 7
11 8 7 6 6 7 7 7 10 8 6 7 6 3 3 3 1 2 5 3 2 2 3 4 3 6 7 9 18 18 11 9 7 6 13 17 13 13 13 8 11 10 9 8 6 2 2 2 1 3 4 2 2 2 2 3 1 1 2 2 1 3 2 3 3 2 2 3 3 4 2 1 4 6 4 2 1 5 6 7 7 6 6 6 6 6 6 7
12 10 8 6 5 5 6 7 8 8 6 7 6 5 5 4 3 4 4 0 1 2 3 4 3 7 9 5 11 15 11 10 10 8 9 13 15 18 16 10 12 10 8 11 7 1 2 2 2 3 3 1 3 1 0 2 1 2 2 1 2 3 3 3 2 3 4 3 5 5 1 2 2 5 4 2 3 5 4 3 5 5 5 5 5 5 6 7
13 10 9 7 5 4 5 7 7 8 7 7 7 8 6 3 4 6 2 1 1 2 4 4 3 6 7 4 5 10 8 9 12 9 7 8 10 13 10 5 5 6 5 6 5 2 2 3 2 2 3 1 3 2 2 1 2 3 2 2 2 4 3 3 4 4 3 3 5 4 2 2 1 5 5 4 5 5 6 4 5 6 4 4 4 5 7 8
14 12 10 8 6 4 4 5 7 8 8 9 10 7 4 2 4 3 1 3 2 2 2 2 3 4 5 4 4 6 4 6 10 8 4 3 5 6 5 1 1 3 3 2 2 3 3 2 2 1 2 3 2 1 3 3 3 3 3 4 3 4 4 2 4 2 1 4 2 1 1 0 5 7 6 6 7 7 9 7 6 5 5 5 6 7 8 8
14 14 10 8 7 6 5 6 7 9 9 11 10 4 5 5 1 1 2 2 1 1 1 0 2 2 3 4 5 5 3 3 6 6 2 2 4 3 3 2 2 1 1 1 1 3 2 2 3 2 2 4 2 3 1 2 3 3 2 3 2 2 4 3 4 2 3 4 2 2 2 2 5 5 6 7 6 6 9 9 6 6 6 7 8 9 10 9
14 15 11 8 9 7 7 7 7 9 10 10 7 3 6 4 1 1 1 2 1 1 1 1 3 4 4 5 2 3 3 2 4 4 3 3 4 3 3 3 5 3 2 2 1 2 1 2 2 2 2 4 2 2 2 2 2 1 3 4 3 3 2 3 3 1 4 5 4 3 1 2 2 2 4 6 6 5 6 7 7 7 7 9 11 11 11 10
12 14 11 9 9 8 8 8 8 9 10 9 5 5 5 2 2 2 2 3 2 0 1 1 3 5 5 4 2 1 2 1 2 4 5 4 3 2 3 3 5 4 2 1 0 1 2 2 2 1 2 2 2 1 1 3 2 1 2 3 2 2 3 1 2 4 1 3 4 2 2 4 3 3 4 4 6 4 5 6 7 7 8 10 12 12 11 10
8 12 12 10 9 8 8 7 7 8 8 6 6 6 2 3 2 3 3 1 2 3 2 1 4 5 3 4 4 3 2 1 2 3 4 3 1 0 1 2 2 3 2 1 1 1 2 2 2 2 2 3 2 1 0 1 0 1 2 2 1 3 6 4 0 0 4 2 4 2 3 5 3 2 4 5 4 4 4 6 8 8 9 10 12 12 11 11
5 8 12 12 10 8 7 6 6 6 5 4 7 3 2 1 1 2 1 1 2 3 4 2 2 2 0 1 3 4 3 2 2 4 2 1 1 1 0 1 1 1 1 1 1 1 2 1 2 1 1 2 2 1 2 3 2 2 2 3 2 3 5 4 1 4 5 1 4 2 3 6 3 1 4 5 4 6 6 7 9 9 9 10 11 11 12 12
4 5 10 13 10 8 6 6 7 5 4 7 6 2 2 1 1 2 0 1 2 3 5 3 1 1 2 1 1 4 3 2 2 4 1 1 1 2 1 1 1 2 2 1 1 0 2 0 3 1 1 2 1 1 2 4 4 3 4 4 2 2 1 2 2 1 3 2 5 5 4 3 2 3 2 2 2 5 6 6 7 9 9 9 10 12 13 12
4 3 9 13 9 7 7 6 5 5 6 7 3 2 1 1 1 2 1 1 1 2 2 3 2 2 1 2 1 2 2 1 1 2 1 0 1 1 1 1 1 2 3 1 2 0 1 1 3 2 1 1 2 1 2 2 3 3 3 2 2 3 2 1 2 2 1 2 4 5 5 3 5 5 4 4 5 5 4 4 6 9 10 9 11 14 15 14
4 2 6 11 8 6 7 7 6 6 6 4 3 2 1 1 2 2 2 1 2 2 1 3 3 2 1 1 1 1 2 2 3 2 0 1 1 1 1 1 1 1 2 1 2 1 2 2 2 4 3 1 1 1 2 3 1 1 3 3 2 2 2 1 1 2 2 1 1 2 5 6 6 4 5 6 6 6 7 5 7 10 11 11 13 15 18 16
4 1 5 10 7 4 5 8 10 9 5 3 2 2 1 2 4 3 3 3 3 3 2 4 4 3 3 1 1 2 2 2 2 2 1 1 1 1 1 1 0 2 1 2 2 1 1 2 1 3 2 2 3 1 1 2 3 3 1 1 2 2 3 2 3 3 2 2 3 2 4 8 6 2 5 5 4 4 5 5 8 12 13 14 15 17 18 15
3 2 5 9 5 3 5 8 9 6 4 3 3 3 2 3 3 3 3 3 3 3 3 3 3 2 3 2 1 2 2 2 1 1 1 1 1 0 0 2 1 2 2 1 1 1 1 3 1 3 3 3 3 1 2 1 2 4 1 1 3 3 4 5 2 3 1 1 1 3 2 8 5 3 5 7 6 4 3 6 10 13 15 17 18 16 14 12
5 4 6 8 4 4 6 6 5 5 4 3 3 4 4 3 3 2 2 2 2 2 3 2 2 2 1 1 2 2 1 1 1 1 1 1 0 1 1 1 1 2 2 1 1 0 1 3 2 3 3 2 4 1 1 1 2 2 1 0 3 2 2 5 4 3 2 2 2 2 2 7 6 4 4 5 5 6 6 8 11 15 19 19 16 13 11 11
5 6 8 9 2 3 4 4 2 2 1 2 4 4 4 3 3 2 1 1 1 1 2 1 1 2 2 1 3 2 0 1 0 1 2 2 1 1 1 1 1 1 2 1 1 1 0 1 2 3 5 6 6 4 3 3 1 1 2 1 2 3 5 4 2 3 1 4 5 3 4 7 5 4 4 3 4 8 11 11 12 18 22 19 13 10 11 11
3 3 8 11 6 2 4 5 7 6 2 3 5 3 3 4 4 3 2 2 3 2 2 2 2 4 3 2 4 3 2 2 1 1 2 1 0 1 1 2 1 1 3 3 2 2 1 1 2 3 2 2 3 3 3 2 1 1 1 1 2 3 6 3 2 3 2 3 4 5 6 7 7 6 5 5 5 8 14 18 18 20 20 16 12 12 13 12
2 1 4 8 9 8 10 8 9 9 5 4 4 1 2 3 2 3 4 3 3 3 4 4 4 4 3 3 4 3 3 3 2 2 2 1 1 0 1 2 3 3 4 4 2 2 3 1 1 4 5 5 5 5 3 2 1 2 2 3 4 4 4 5 4 2 4 3 2 7 7 8 13 11 8 9 8 7 14 21 22 19 16 13 13 13 14 13
3 2 2 4 6 10 12 9 8 9 7 5 3 2 3 3 0 2 2 1 2 3 3 2 3 2 2 3 3 2 0 2 2 2 2 2 1 0 1 2 3 3 4 3 1 3 3 1 1 3 6 7 6 6 3 2 3 5 4 4 6 5 4 6 5 5 5 3 5 8 5 4 12 13 10 12 10 9 15 21 20 17 14 12 13 14 14 14
3 2 2 2 1 3 6 5 6 11 9 4 3 2 4 3 2 2 2 1 2 2 1 1 1 2 4 5 3 3 1 2 1 1 1 1 1 1 0 1 1 3 3 2 0 2 4 1 2 2 5 8 5 4 2 3 4 4 5 6 6 8 9 10 9 7 7 5 8 5 3 6 13 13 13 16 16 16 20 21 17 14 13 12 13 15 15 14
5 5 4 5 4 4 5 4 8 12 9 4 3 2 4 5 5 3 2 3 1 1 2 1 4 4 5 4 4 4 3 1 0 2 3 3 2 1 1 1 2 3 2 2 1 1 3 2 2 2 5 8 5 3 2 4 3 4 6 8 8 9 12 12 9 6 7 11 13 9 9 14 16 14 16 23 24 21 20 17 12 11 13 13 15 16 15 13
4 4 5 7 8 9 8 6 7 8 5 3 2 2 4 7 6 3 2 4 2 2 4 3 3 4 4 4 5 2 4 4 1 2 5 5 1 3 3 2 3 3 1 1 1 1 1 1 1 3 3 8 4 2 0 3 4 5 7 8 7 7 9 9 8 5 6 11 12 9 11 14 15 14 16 19 19 15 15 13 11 13 15 16 17 15 12 11
2 2 4 7 6 5 4 4 4 4 2 1 2 3 4 6 8 6 3 2 2 3 5 6 7 6 3 3 3 1 3 3 2 0 6 5 2 4 3 3 6 5 1 1 1 1 2 1 1 4 3 6 3 2 3 3 3 7 10 10 10 8 6 6 6 6 8 7 5 3 5 8 8 7 8 12 13 13 15 15 15 18 18 17 16 13 10 11
2 3 4 4 3 1 3 2 4 3 2 1 2 5 3 5 10 10 4 1 2 2 3 8 10 7 3 3 4 2 3 5 5 6 6 5 6 7 6 5 8 6 4 4 1 1 3 3 1 2 1 6 4 2 4 6 5 5 7 8 12 10 6 5 4 7 10 7 4 4 7 7 4 3 5 10 13 15 17 17 17 19 17 14 12 10 10 11
Wind_Direction
89 92 83 75 71 80 96 95 82 74 77 86 97 101 104 115 123 121 123 126 117 112 108 102 96 87 81 76 72 66 63 79 83 74 60 32 21 27 34 37 46 80 103 105 111 119 108 98 102 113 112 90 80 78 75 68 64 73 75 72 98 124 128 167 174 150 133 134 153 137 122 123 116 96 97 81 72 81 81 78 79 84 89 87 81 77 67 56
89 93 87 79 76 83 95 96 85 77 77 78 84 95 108 136 145 124 120 130 127 121 114 107 95 78 71 63 60 63 56 74 80 61 42 29 32 32 36 47 61 99 102 106 121 118 104 98 107 128 109 86 70 78 79 61 54 55 79 81 86 171 85 112 140 132 127 131 132 124 122 114 110 113 105 79 58 73 76 70 80 85 79 75 69 65 57 49
94 98 93 86 84 86 91 91 83 79 82 81 81 86 90 88 107 136 143 143 135 127 119 110 94 41 30 29 46 61 50 71 61 32 25 31 30 30 42 52 64 84 90 116 124 110 102 102 116 118 98 81 65 81 76 55 51 44 66 81 48 153 79 77 121 124 131 133 128 119 120 107 104 106 107 113 73 57 63 65 73 74 69 69 64 58 52 44
101 109 103 97 96 95 93 88 78 73 77 84 87 86 79 67 66 76 131 180 186 182 177 190 265 300 309 330 20 37 31 58 32 9 16 27 24 29 45 53 55 62 85 123 119 108 105 108 117 105 91 75 64 75 58 39 67 43 48 92 132 121 80 72 116 122 128 130 125 119 114 100 98 106 111 118 77 41 59 78 70 67 67 66 60 55 47 38
98 115 114 106 105 105 98 83 69 65 72 81 87 92 80 66 68 66 69 107 188 207 216 227 245 270 282 301 308 296 332 46 8 4 19 21 22 29 46 58 55 64 88 112 115 110 112 116 112 94 80 64 57 68 44 47 85 70 47 78 94 109 93 95 118 123 128 125 119 113 106 104 104 91 80 95 104 96 89 81 73 70 68 62 56 49 39 27
90 111 122 117 107 103 95 77 62 62 74 86 88 93 95 87 82 73 67 65 75 110 172 211 231 261 291 330 325 74 93 60 355 9 17 16 23 30 48 63 60 71 83 101 113 113 118 117 106 86 74 65 55 68 56 58 93 98 55 63 81 104 106 114 120 120 127 121 111 106 110 117 105 83 73 88 105 113 103 89 84 78 69 63 52 39 26 9
82 100 123 126 109 95 83 73 60 63 80 90 88 79 82 117 109 82 70 64 65 78 91 104 107 97 83 78 97 87 73 48 12 17 15 18 26 33 48 60 65 69 81 99 113 121 120 108 97 87 83 77 69 81 82 75 82 97 84 67 83 100 102 116 122 118 124 111 104 118 117 104 96 96 88 95 105 109 109 97 91 88 71 63 44 20 11 359
81 96 113 119 109 92 79 69 57 62 84 92 86 70 59 109 144 114 78 72 68 83 94 97 100 100 86 75 81 68 51 28 20 25 18 20 30 44 50 54 60 73 102 109 114 117 110 99 92 86 78 84 96 97 93 82 64 63 94 90 88 95 98 113 117 111 110 103 110 119 105 88 92 105 109 109 117 116 117 109 100 93 69 53 13 354 357 356
91 100 106 109 102 90 79 68 59 62 86 96 82 70 62 85 141 148 110 88 80 102 104 99 107 93 52 50 74 61 37 24 27 31 32 32 38 55 68 75 86 104 108 112 118 112 103 98 98 104 103 100 100 91 90 89 47 52 102 101 95 94 98 109 106 99 101 103 118 111 87 98 101 89 114 131 125 115 133 141 140 104 69 336 325 328 336 350
99 105 106 103 98 91 84 71 64 67 86 101 82 68 69 79 114 137 136 116 90 126 131 112 155 45 64 96 86 67 33 39 40 46 62 61 63 73 84 90 107 124 111 105 104 95 107 110 108 110 107 95 85 70 68 93 113 110 102 95 93 95 96 99 95 88 91 93 103 109 95 129 116 45 214 183 151 274 249 249 263 265 281 299 303 304 311 328
103 107 106 102 99 93 90 79 72 79 91 102 84 72 83 89 92 91 90 90 82 92 95 104 117 108 107 92 82 73 51 54 51 63 83 88 81 75 75 82 99 110 103 97 97 100 106 110 110 104 92 90 88 76 80 102 115 110 101 90 79 87 88 80 86 68 62 86 78 84 112 287 336 268 192 187 219 290 282 272 268 272 281 288 297 298 290 297
103 107 107 105 104 99 97 87 80 88 96 97 81 82 99 97 84 76 82 91 95 96 95 97 95 97 95 79 74 76 69 63 57 66 85 95 81 65 65 80 94 92 91 98 103 111 113 113 118 107 103 107 96 81 96 110 110 103 98 89 56 71 69 37 53 30 25 113 61 24 343 302 298 202 173 190 255 288 292 285 276 274 283 289 299 301 285 292
100 105 107 106 104 105 105 95 90 96 96 91 82 97 114 103 73 70 101 110 107 102 89 82 83 82 81 72 71 81 81 73 66 70 79 82 78 69 70 80 91 88 83 92 98 112 119 122 118 113 112 108 96 110 120 114 103 94 81 83 35 34 24 11 26 348 358 213 265 333 344 286 280 207 178 238 276 291 295 286 278 277 286 291 295 296 288 292
95 98 100 100 99 103 111 105 99 101 101 94 90 103 123 115 74 73 106 122 116 97 77 83 95 100 91 85 84 86 87 85 77 77 81 83 84 82 82 83 85 87 84 87 92 100 108 114 110 103 98 100 109 117 114 94 83 81 48 49 40 60 338 341 10 342 360 14 308 60 77 272 280 245 183 245 274 292 298 286 275 276 283 285 283 283 283 289
90 89 87 85 83 84 93 108 112 109 101 92 96 104 115 119 98 88 98 108 106 98 96 93 92 95 91 88 94 90 89 97 89 83 85 87 88 88 88 87 87 88 88 89 95 99 104 107 99 89 90 104 113 111 84 31 39 44 69 9 359 81 309 314 7 17 55 19 23 74 215 275 287 273 188 237 269 285 294 289 277 274 276 277 277 277 279 286
90 84 79 74 72 72 76 87 109 122 105 88 104 110 108 107 109 110 106 107 105 97 94 89 86 91 88 81 92 94 92 92 85 87 93 91 91 93 92 92 92 91 90 91 95 96 96 95 87 81 87 99 100 82 63 44 21 9 77 79 337 51 17 320 12 25 33 13 18 46 284 273 306 338 209 238 262 274 287 291 281 274 274 278 280 280 283 289
90 79 72 71 74 76 77 81 90 108 113 108 117 117 110 100 102 114 113 101 95 87 85 88 89 80 73 80 92 83 81 78 76 92 105 100 98 99 97 95 92 90 91 93 98 90 82 83 83 74 61 55 28 61 74 43 12 353 48 91 340 37 21 329 322 4 19 42 4 19 293 253 287 321 296 245 261 270 282 291 286 274 272 279 281 282 286 292
78 57 54 67 85 91 95 102 99 100 107 117 128 123 105 90 110 128 121 99 79 85 80 66 72 75 60 67 77 67 74 78 77 84 98 110 110 109 104 93 89 97 96 87 72 64 70 71 79 80 33 29 12 41 88 119 139 132 90 113 79 48 51 333 275 343 10 29 10 11 337 280 298 318 308 257 260 271 278 285 287 276 271 277 280 283 288 292
41 34 44 66 98 106 117 122 113 111 110 116 120 109 98 94 101 101 85 79 68 72 65 30 46 98 95 72 72 70 75 77 73 77 94 106 108 110 99 86 94 100 85 67 37 40 60 66 57 52 358 354 342 4 93 149 143 140 131 128 113 99 255 273 253 318 3 13 350 358 308 290 299 308 303 277 264 271 276 278 280 276 274 278 280 285 289 292
30 46 60 82 116 126 130 125 117 116 113 115 114 106 105 95 85 70 67 71 70 71 79 63 66 88 94 80 79 77 70 65 64 71 93 110 113 97 77 89 95 70 54 46 20 33 62 72 42 11 311 307 300 303 309 99 110 115 103 92 92 119 273 287 274 320 2 25 299 289 279 285 280 279 283 282 273 272 274 274 277 279 281 284 285 289 291 295
83 79 77 88 123 143 148 139 129 128 123 130 135 133 149 95 89 89 76 71 69 70 71 69 71 73 69 63 72 84 76 67 66 66 67 109 133 70 39 67 81 50 18 3 59 41 62 71 21 333 294 293 305 295 144 78 72 82 98 96 66 79 265 276 260 318 358 40 253 310 326 289 272 269 273 272 265 268 272 274 280 286 289 290 290 293 295 298
91 91 94 101 115 128 144 150 154 175 186 184 158 126 114 104 102 102 93 82 71 67 65 65 67 64 62 59 57 74 81 61 49 49 52 76 99 72 58 66 70 47 348 10 74 48 53 58 338 328 306 302 22 37 84 77 67 61 84 100 69 9 282 278 269 327 356 33 263 337 344 286 269 265 269 264 252 258 268 272 280 286 289 292 296 298 298 298
100 104 112 116 113 111 113 113 114 125 128 126 119 109 104 101 97 92 92 93 75 59 55 58 56 53 53 51 48 59 70 52 25 30 38 63 79 74 74 70 68 64 12 27 95 89 65 21 323 336 330 80 47 25 50 67 64 51 56 89 230 303 339 278 306 339 340 36 284 307 304 283 291 294 274 262 246 255 265 269 274 278 284 292 299 300 299 301
109 117 127 131 123 115 111 106 104 107 114 117 110 103 101 98 96 92 88 92 85 50 43 45 42 41 40 38 39 55 64 52 27 22 26 50 69 67 73 73 70 65 32 56 86 88 90 307 321 3 50 96 73 35 38 55 41 20 68 101 223 292 165 239 294 334 331 3 16 332 323 302 327 331 285 278 269 266 267 271 276 282 293 303 309 311 312 313
115 131 141 149 145 133 123 119 117 116 122 125 110 96 97 95 91 90 82 84 75 21 24 32 29 29 25 23 33 60 63 52 33 22 22 42 53 77 82 58 57 66 296 68 78 79 73 339 341 55 46 59 83 52 25 56 55 3 42 120 163 187 193 284 316 1 18 353 355 23 12 302 317 316 271 306 342 294 280 281 284 297 314 322 329 334 333 330
105 136 151 163 170 168 153 139 141 144 147 155 146 84 83 91 83 75 75 74 41 346 3 18 16 16 13 9 11 74 63 43 29 24 28 40 43 80 88 31 52 105 217 112 82 86 52 22 51 91 72 59 72 64 357 88 94 30 333 139 146 142 107 349 359 39 47 295 312 52 86 268 315 316 276 314 333 302 296 288 280 289 308 318 323 333 344 342
83 121 151 166 177 182 177 167 173 177 176 194 210 165 90 102 92 49 37 52 19 333 358 4 9 22 18 14 19 97 68 360 23 27 32 42 39 70 84 12 51 88 177 106 79 49 346 18 36 53 68 62 60 53 313 109 104 307 260 122 126 117 117 70 72 87 198 265 328 27 94 200 296 287 280 314 316 305 307 289 277 275 284 296 298 317 345 341
66 91 130 155 170 180 188 189 187 188 193 199 197 191 168 128 116 356 67 75 343 333 14 2 27 34 29 36 49 74 75 25 39 20 29 44 47 70 79 54 100 93 27 92 127 32 358 11 19 44 63 61 71 249 255 129 99 270 214 143 146 132 151 140 100 101 33 16 325 330 50 100 272 275 302 338 311 299 292 272 271 267 264 275 283 297 326 328
58 70 96 127 148 169 183 184 184 190 196 191 188 192 168 131 117 24 80 99 312 348 24 3 18 2 1 42 46 50 54 42 44 20 33 51 58 76 85 82 101 91 42 67 128 168 58 41 27 89 81 81 184 230 217 143 100 256 162 131 51 60 69 71 88 122 46 28 268 278 18 43 275 282 310 350 262 264 265 264 262 252 250 260 277 292 301 308
51 61 73 94 121 147 169 175 181 189 185 179 175 158 136 111 84 62 65 141 324 344 344 2 356 338 349 32 31 28 40 36 27 31 50 59 61 74 88 92 92 87 50 57 79 110 97 73 35 67 66 155 161 127 122 151 165 144 107 17 5 14 15 39 52 92 58 341 255 254 328 70 304 285 261 224 222 209 210 259 252 234 238 250 270 289 290 297
45 56 62 68 94 124 158 172 179 180 175 169 161 143 125 79 67 90 95 266 318 338 357 16 358 2 21 62 25 7 24 25 15 27 46 41 42 53 67 79 67 59 38 40 44 11 25 38 21 50 46 76 134 95 23 79 122 112 78 18 349 328 345 14 351 36 70 288 264 262 313 96 214 266 241 235 251 213 183 185 212 221 233 246 264 281 288 299
42 51 57 60 77 99 139 162 168 169 167 159 154 146 125 52 31 90 251 319 338 332 20 360 318 17 36 56 36 352 358 17 14 32 51 28 38 31 31 69 59 35 20 4 29 22 12 354 326 310 27 36 103 103 2 355 39 58 58 56 36 343 356 358 326 345 205 249 260 272 333 165 231 246 241 248 258 237 216 199 197 223 246 263 275 285 293 302
38 45 51 58 70 84 112 135 146 153 157 154 153 135 78 78 53 225 286 332 23 308 27 19 329 17 50 44 19 342 8 12 359 28 50 58 69 37 15 78 88 75 132 177 86 32 13 322 349 360 342 9 62 128 32 321 30 54 89 84 74 51 24 320 290 313 286 273 275 287 310 284 272 266 230 234 257 244 226 216 216 239 263 281 287 293 300 305
35 39 43 53 67 81 98 111 130 142 148 148 145 89 61 76 192 176 294 263 227 337 16 57 354 17 49 55 342 312 47 27 342 25 21 33 57 22 349 14 31 63 107 95 124 101 73 295 354 33 316 346 18 138 150 144 83 80 159 119 106 132 110 279 255 256 294 293 297 309 291 206 255 295 220 238 283 279 234 227 233 249 273 289 294 298 302 303
35 36 39 52 63 79 94 105 122 131 146 149 106 62 82 144 220 148 172 232 222 360 360 53 58 49 25 12 345 350 68 5 4 46 30 40 83 29 359 329 357 38 86 57 181 118 81 250 264 9 326 360 6 281 99 92 83 197 167 91 67 156 135 140 199 184 225 312 300 287 230 219 231 279 282 298 304 273 229 237 247 263 283 292 296 300 302 301
37 33 35 47 56 70 88 108 128 132 151 147 71 57 129 195 202 158 167 170 147 148 137 36 54 64 16 341 355 9 30 352 21 46 25 41 112 305 356 272 324 38 88 108 176 128 75 272 285 12 13 35 33 266 16 45 180 85 71 93 149 133 117 106 194 67 74 42 288 282 264 290 325 326 323 353 335 290 257 246 251 267 285 292 298 304 304 303
33 32 33 40 47 58 79 103 120 141 163 108 78 91 199 214 183 185 188 108 148 127 101 93 34 54 82 330 327 324 348 346 20 53 42 22 91 200 280 284 292 15 55 125 172 166 131 212 300 69 109 9 31 105 45 46 86 76 92 166 158 90 97 101 22 353 38 36 286 319 284 296 345 330 326 6 346 304 283 257 260 270 279 292 307 313 308 307
28 31 29 32 38 49 73 95 102 123 116 79 80 130 169 154 215 204 101 79 142 86 85 124 117 24 187 158 294 303 333 325 2 48 74 276 62 166 183 319 311 349 352 114 135 78 121 172 300 280 154 329 18 100 2 15 42 89 129 146 120 92 69 38 51 3 10 318 293 311 300 272 219 231 305 22 284 280 283 278 274 269 271 292 317 324 317 313
19 33 26 22 28 47 62 89 109 110 84 75 100 166 145 151 184 173 150 54 87 84 92 160 134 58 156 149 170 272 348 34 88 60 91 122 56 202 202 200 205 360 358 97 140 295 59 94 276 263 173 326 7 43 276 322 22 55 69 33 28 116 148 54 74 143 233 292 295 318 326 286 232 219 193 204 231 235 245 271 265 260 271 292 313 327 327 320
13 54 22 11 20 49 60 80 86 73 70 84 151 162 121 158 144 142 144 79 73 86 123 168 135 103 163 180 186 173 39 75 121 100 262 121 75 274 263 180 205 350 1 73 110 64 30 71 257 290 324 287 294 339 200 183 145 57 31 1 4 77 121 144 41 99 133 164 216 322 318 281 250 210 185 211 231 214 208 223 245 261 280 292 301 316 323 320
17 54 7 3 19 57 69 71 57 55 81 98 122 117 71 138 132 112 107 96 78 72 106 141 128 131 155 155 219 172 78 57 98 99 185 172 81 350 324 114 65 339 11 73 58 31 42 100 206 290 310 219 235 286 152 171 170 155 145 183 158 117 108 92 330 322 100 138 172 157 293 279 264 207 204 229 253 240 226 234 258 274 286 295 302 311 315 314
38 65 3 2 18 83 83 65 41 42 95 90 73 99 109 118 118 105 100 92 75 71 87 105 91 109 144 126 141 156 111 88 102 76 159 187 120 172 136 88 48 360 68 101 352 299 144 94 85 261 238 221 264 304 123 163 139 124 126 150 123 116 116 118 249 264 126 111 154 114 276 272 264 233 244 264 282 290 277 271 277 287 298 306 312 314 312 310
56 57 8 5 37 113 89 67 30 27 64 89 87 94 98 102 109 116 107 60 59 76 73 72 61 85 145 160 118 130 120 145 167 117 151 188 136 162 148 65 15 11 66 120 279 257 103 67 41 294 291 321 325 326 141 41 81 98 305 144 126 135 131 138 172 184 148 182 157 89 281 268 277 303 292 280 279 278 280 284 287 295 308 316 317 314 314 314
60 48 23 20 35 163 105 101 126 65 65 109 86 75 77 75 74 97 127 62 69 103 95 96 91 90 107 110 102 111 266 131 107 48 127 161 133 137 126 43 10 37 77 123 142 129 359 49 59 5 349 346 347 351 341 343 60 195 246 180 139 111 104 122 136 79 318 219 156 133 254 257 274 326 337 320 303 290 285 288 290 294 305 317 322 319 321 322
49 36 29 32 37 139 111 121 140 136 150 121 94 83 78 67 53 65 101 99 87 101 104 104 117 108 102 89 82 68 27 48 50 36 81 94 110 131 96 42 49 121 102 102 113 123 145 149 104 92 64 307 303 301 294 304 293 254 175 166 197 137 126 154 119 78 281 239 150 167 230 265 288 312 331 317 310 300 295 300 301 300 307 319 327 328 327 328
60 59 19 26 36 69 88 105 121 125 149 141 107 105 104 88 61 76 93 94 88 95 94 103 128 114 77 73 78 54 15 25 45 112 124 180 257 206 99 78 100 126 116 96 69 84 110 96 122 149 183 211 211 228 232 135 180 243 212 194 201 178 140 123 111 154 200 179 200 225 232 281 292 294 305 303 300 290 293 303 310 313 320 326 329 328 326 330
73 76 4 14 33 61 75 79 95 113 144 151 126 155 146 123 99 90 92 85 121 120 83 80 134 142 137 137 107 83 336 4 35 94 120 180 209 11 191 148 117 139 142 115 59 80 98 340 285 173 223 238 220 230 229 143 219 222 208 209 194 181 157 144 178 208 157 117 278 253 198 237 277 288 298 296 299 297 295 303 311 317 324 327 325 324 324 328
69 111 70 66 54 65 66 58 93 106 112 114 104 131 138 134 160 163 157 119 134 161 130 67 256 210 178 167 134 130 166 7 13 161 135 163 162 51 27 225 185 173 158 137 111 96 108 214 220 175 262 265 250 256 217 183 230 221 202 212 190 175 183 193 212 201 156 191 251 244 174 244 272 287 290 287 289 292 295 300 303 307 316 320 319 321 325 327
84 106 93 84 91 102 96 109 118 105 88 75 89 126 160 165 181 199 159 107 60 247 168 201 255 213 175 157 113 131 184 162 341 232 175 149 176 151 129 239 212 184 166 134 46 85 116 209 203 156 289 287 290 308 221 191 241 259 231 225 204 192 198 209 226 205 190 238 259 271 288 282 277 274 275 284 290 290 291 293 292 301 314 317 317 322 329 334
101 113 120 107 91 86 92 111 118 96 61 51 95 155 169 165 179 204 168 141 145 202 185 208 220 168 148 131 107 115 215 177 77 255 177 144 149 201 191 196 167 145 126 104 45 47 129 244 185 113 320 298 308 12 61 175 211 245 250 234 213 211 215 224 240 221 217 255 266 277 287 281 277 271 268 280 291 292 287 285 286 300 312 315 319 327 334 338
114 127 139 123 93 70 89 109 99 90 74 37 142 169 181 192 187 163 135 171 169 169 193 186 156 131 93 110 132 289 246 173 57 286 175 151 139 181 184 172 157 142 123 155 91 83 128 173 28 67 1 291 296 18 327 298 253 256 265 242 212 209 211 214 222 201 197 223 242 278 275 261 266 277 276 281 288 285 283 286 293 301 309 316 320 327 334 334
142 145 153 133 98 90 144 119 68 94 166 212 151 161 185 206 180 154 122 270 218 158 192 174 148 128 94 154 190 199 123 126 94 98 127 117 111 122 115 130 147 145 156 154 90 42 131 124 115 70 346 273 284 313 297 320 332 285 269 221 193 196 210 226 247 223 205 187 160 209 236 238 255 299 304 292 287 288 291 295 300 303 309 316 317 323 332 331
Height
1535 1534 1534 1534 1534 1534 1533 1533 1533 1533 1533 1533 1533 1533 1533 1533 1532 1532 1532 1531 1531 1530 1530 1531 1531 1531 1531 1531 1530 1529 1530 1528 1525 1524 1526 1534 1537 1536 1535 1534 1533 1533 1533 1533 1533 1533 1532 1531 1531 1531 1530 1532 1536 1541 1543 1546 1546 1548 1557 1569 1579 1586 1587 1588 1591 1591 1591 1595 1598 1598 1598 1598 1600 1600 1600 1601 1601 1600 1601 1601 1601 1601 1602 1602 1602 1602 1602 1602
1536 1535 1536 1535 1535 1535 1534 1534 1534 1534 1534 1534 1535 1535 1535 1534 1534 1533 1534 1533 1532 1531 1531 1531 1532 1532 1532 1532 1531 1530 1531 1530 1527 1528 1534 1538 1538 1536 1536 1535 1534 1534 1534 1534 1534 1534 1532 1532 1533 1532 1532 1536 1542 1545 1546 1550 1550 1555 1566 1574 1583 1588 1589 1589 1590 1591 1592 1595 1597 1598 1599 1599 1600 1601 1601 1601 1602 1602 1601 1602 1602 1602 1602 1602 1603 1603 1603 1602
1537 1537 1537 1536 1536 1536 1535 1536 1536 1536 1536 1536 1536 1536 1536 1535 1534 1534 1535 1534 1533 1532 1532 1532 1532 1533 1532 1532 1532 1531 1532 1531 1530 1534 1537 1538 1537 1536 1535 1535 1535 1534 1534 1534 1535 1535 1534 1534 1534 1533 1535 1540 1547 1547 1548 1553 1557 1562 1569 1578 1589 1590 1589 1591 1591 1592 1593 1594 1597 1599 1600 1600 1600 1601 1601 1602 1603 1603 1602 1603 1603 1603 1603 1603 1603 1603 1603 1603
1538 1538 1538 1538 1538 1537 1537 1537 1537 1538 1537 1537 1538 1537 1537 1536 1535 1534 1534 1534 1533 1532 1533 1533 1533 1532 1532 1532 1532 1532 1532 1531 1535 1540 1539 1538 1538 1537 1536 1536 1536 1535 1536 1535 1536 1536 1536 1536 1535 1534 1536 1544 1551 1549 1553 1559 1561 1569 1575 1583 1591 1589 1590 1594 1593 1594 1596 1596 1597 1599 1600 1601 1601 1602 1602 1602 1603 1604 1604 1604 1604 1604 1604 1604 1604 1604 1603 1603
1539 1539 1539 1539 1539 1539 1539 1539 1539 1539 1539 1539 1538 1538 1538 1537 1536 1535 1534 1533 1532 1532 1533 1533 1533 1533 1533 1532 1532 1532 1531 1536 1544 1544 1541 1540 1539 1538 1537 1537 1537 1537 1538 1537 1538 1538 1538 1538 1536 1536 1540 1550 1553 1552 1563 1567 1564 1575 1586 1588 1590 1590 1592 1596 1596 1596 1597 1598 1599 1599 1601 1601 1602 1602 1602 1602 1603 1604 1605 1604 1605 1604 1604 1604 1604 1604 1603 1603
1539 1539 1539 1540 1540 1540 1540 1540 1540 1540 1540 1539 1539 1539 1539 1539 1538 1537 1536 1534 1532 1532 1533 1534 1534 1535 1534 1533 1532 1530 1533 1546 1552 1545 1543 1542 1540 1540 1538 1538 1538 1539 1539 1539 1539 1539 1540 1540 1537 1541 1548 1556 1559 1562 1571 1572 1566 1577 1590 1592 1591 1592 1593 1597 1598 1598 1599 1599 1599 1600 1601 1602 1602 1603 1603 1603 1603 1604 1605 1604 1605 1605 1605 1604 1604 1604 1604 1603
1539 1539 1540 1540 1540 1540 1540 1540 1540 1540 1540 1540 1540 1540 1539 1539 1539 1538 1537 1536 1536 1535 1535 1535 1536 1537 1537 1536 1533 1530 1536 1550 1553 1547 1546 1543 1542 1542 1540 1540 1539 1539 1540 1540 1540 1540 1542 1541 1541 1548 1553 1559 1566 1570 1573 1573 1573 1578 1589 1595 1594 1595 1596 1598 1599 1600 1601 1600 1601 1602 1602 1603 1603 1604 1604 1604 1604 1605 1605 1605 1605 1605 1605 1605 1605 1604 1604 1603
1539 1539 1540 1540 1541 1541 1541 1541 1541 1540 1540 1540 1540 1540 1539 1539 1539 1539 1539 1539 1539 1538 1537 1537 1537 1538 1537 1538 1535 1533 1542 1552 1552 1550 1549 1545 1544 1543 1542 1541 1541 1541 1541 1542 1543 1543 1544 1543 1546 1552 1556 1563 1569 1574 1574 1574 1581 1585 1590 1596 1596 1598 1599 1600 1601 1601 1602 1601 1603 1603 1603 1604 1604 1605 1605 1605 1605 1605 1605 1605 1605 1605 1605 1605 1604 1604 1604 1603
1539 1540 1540 1541 1541 1541 1541 1541 1541 1541 1541 1541 1541 1541 1540 1539 1539 1540 1540 1540 1540 1540 1540 1539 1540 1539 1538 1539 1535 1538 1551 1557 1554 1553 1551 1548 1546 1545 1545 1544 1544 1544 1543 1544 1546 1544 1545 1546 1549 1552 1558 1566 1571 1576 1574 1573 1586 1593 1593 1596 1597 1600 1602 1602 1603 1603 1603 1603 1604 1604 1605 1605 1605 1605 1605 1606 1606 1606 1606 1605 1605 1605 1605 1605 1604 1604 1604 1604
1540 1541 1541 1541 1542 1542 1542 1542 1541 1541 1541 1542 1542 1542 1541 1540 1541 1541 1541 1541 1541 1541 1541 1540 1541 1540 1540 1538 1534 1546 1561 1560 1557 1556 1554 1552 1549 1547 1547 1547 1547 1547 1546 1547 1547 1546 1546 1547 1552 1554 1557 1566 1573 1577 1575 1576 1588 1595 1594 1597 1599 1601 1603 1604 1604 1605 1605 1605 1606 1606 1606 1606 1606 1606 1606 1606 1606 1606 1606 1606 1606 1606 1605 1605 1605 1605 1604 1604
1542 1542 1542 1543 1543 1543 1543 1543 1543 1542 1542 1543 1543 1543 1543 1542 1542 1542 1543 1542 1542 1542 1541 1542 1542 1542 1542 1538 1538 1555 1564 1560 1559 1557 1555 1556 1552 1551 1550 1550 1550 1549 1548 1548 1549 1550 1550 1551 1554 1556 1560 1568 1575 1578 1581 1585 1592 1595 1595 1598 1602 1603 1605 1606 1606 1606 1607 1607 1607 1607 1608 1607 1606 1606 1606 1606 1607 1607 1606 1606 1606 1606 1606 1606 1605 1605 1604 1604
1544 1544 1544 1544 1544 1545 1544 1545 1545 1544 1544 1544 1544 1545 1545 1544 1544 1545 1544 1544 1543 1543 1544 1544 1545 1545 1541 1540 1548 1561 1564 1562 1562 1559 1557 1557 1555 1554 1554 1554 1554 1552 1552 1549 1552 1554 1554 1555 1554 1556 1565 1571 1576 1582 1589 1594 1594 1596 1597 1599 1605 1606 1606 1608 1608 1608 1608 1608 1608 1608 1607 1606 1607 1606 1607 1607 1607 1607 1607 1607 1607 1606 1606 1606 1606 1605 1605 1604
1545 1545 1546 1546 1546 1546 1546 1546 1546 1546 1546 1546 1546 1546 1546 1546 1546 1546 1546 1547 1546 1545 1546 1545 1546 1546 1542 1548 1559 1564 1565 1565 1564 1562 1560 1559 1558 1558 1557 1557 1556 1555 1555 1551 1553 1556 1556 1557 1555 1558 1567 1570 1577 1584 1590 1596 1595 1598 1600 1601 1606 1606 1607 1610 1609 1609 1609 1609 1609 1609 1606 1603 1606 1606 1607 1608 1607 1607 1607 1607 1606 1606 1606 1606 1605 1605 1605 1604
1547 1547 1547 1547 1548 1547 1547 1548 1547 1548 1548 1548 1548 1547 1548 1548 1548 1548 1548 1548 1548 1548 1547 1546 1548 1545 1545 1557 1566 1566 1567 1567 1566 1564 1562 1562 1562 1561 1560 1560 1558 1558 1558 1555 1556 1559 1560 1561 1557 1561 1570 1572 1579 1586 1591 1596 1597 1601 1602 1605 1610 1608 1609 1611 1610 1609 1608 1609 1609 1609 1607 1603 1605 1607 1607 1608 1607 1607 1607 1606 1606 1605 1605 1604 1604 1604 1603 1603
1549 1549 1549 1549 1549 1548 1549 1548 1549 1549 1549 1549 1549 1549 1550 1550 1550 1550 1550 1550 1551 1550 1549 1549 1549 1547 1549 1561 1567 1567 1569 1568 1568 1567 1565 1566 1564 1563 1564 1562 1561 1561 1561 1560 1561 1564 1565 1563 1561 1569 1578 1579 1583 1587 1593 1597 1601 1605 1602 1605 1613 1610 1610 1612 1611 1611 1609 1610 1610 1609 1608 1605 1606 1607 1607 1607 1607 1607 1607 1606 1606 1605 1604 1604 1603 1603 1602 1602
1551 1551 1550 1551 1551 1550 1550 1550 1550 1550 1551 1551 1551 1551 1552 1551 1552 1552 1552 1553 1552 1552 1550 1550 1551 1550 1553 1564 1568 1568 1570 1569 1569 1569 1568 1569 1567 1567 1567 1565 1565 1565 1565 1565 1566 1569 1568 1565 1569 1578 1585 1587 1589 1589 1592 1597 1601 1607 1604 1607 1614 1612 1611 1613 1611 1612 1611 1610 1610 1610 1609 1607 1606 1606 1607 1607 1607 1607 1607 1606 1606 1605 1605 1604 1603 1603 1603 1602
1552 1552 1552 1552 1552 1552 1552 1551 1551 1551 1552 1552 1552 1553 1553 1553 1553 1553 1554 1553 1553 1553 1552 1552 1553 1551 1558 1567 1570 1570 1570 1570 1570 1571 1570 1570 1570 1569 1569 1568 1568 1568 1568 1568 1569 1571 1569 1570 1578 1586 1589 1592 1596 1592 1588 1594 1599 1605 1609 1612 1617 1617 1614 1612 1611 1612 1612 1610 1610 1612 1611 1607 1606 1607 1606 1607 1607 1607 1606 1606 1606 1605 1605 1604 1604 1603 1603 1603
1553 1553 1553 1553 1553 1554 1553 1553 1552 1552 1552 1553 1553 1554 1553 1554 1554 1554 1555 1554 1554 1553 1553 1554 1551 1553 1565 1571 1571 1572 1572 1572 1572 1571 1571 1571 1571 1571 1571 1570 1570 1570 1570 1570 1572 1572 1572 1577 1582 1588 1594 1597 1602 1597 1587 1593 1598 1600 1605 1609 1614 1618 1616 1615 1613 1612 1612 1611 1610 1611 1610 1607 1606 1607 1606 1606 1606 1606 1606 1605 1605 1605 1604 1604 1604 1603 1603 1602
1554 1554 1553 1553 1554 1554 1554 1554 1553 1553 1553 1554 1555 1554 1554 1555 1554 1555 1555 1554 1555 1557 1561 1561 1556 1560 1572 1574 1573 1573 1573 1573 1573 1572 1572 1572 1572 1572 1572 1571 1571 1571 1571 1573 1576 1577 1577 1583 1588 1595 1604 1606 1610 1608 1599 1600 1601 1601 1606 1609 1611 1613 1614 1616 1615 1614 1615 1612 1610 1611 1610 1609 1607 1606 1605 1605 1605 1605 1604 1604 1604 1604 1604 1603 1603 1602 1602 1601
1554 1554 1554 1554 1554 1554 1555 1554 1554 1554 1555 1555 1556 1555 1556 1555 1556 1560 1558 1556 1561 1566 1570 1569 1566 1568 1573 1574 1574 1574 1574 1574 1573 1573 1573 1573 1573 1573 1572 1573 1573 1572 1575 1579 1581 1583 1582 1590 1604 1612 1615 1615 1614 1615 1611 1609 1608 1607 1609 1611 1615 1615 1612 1615 1615 1614 1615 1611 1610 1613 1612 1610 1607 1605 1604 1604 1604 1604 1603 1603 1602 1602 1602 1602 1602 1601 1601 1600
1555 1554 1554 1554 1554 1555 1555 1555 1555 1555 1555 1556 1556 1556 1556 1555 1557 1561 1560 1563 1570 1572 1572 1573 1572 1572 1574 1575 1575 1575 1575 1574 1574 1574 1574 1574 1573 1573 1574 1574 1574 1577 1584 1585 1585 1587 1585 1595 1613 1618 1618 1618 1616 1615 1613 1610 1609 1609 1609 1610 1614 1616 1613 1614 1615 1614 1615 1611 1609 1613 1611 1605 1603 1602 1602 1602 1602 1601 1601 1601 1601 1601 1601 1601 1600 1600 1600 1599
1555 1555 1555 1555 1555 1555 1555 1556 1556 1556 1556 1556 1557 1557 1557 1556 1558 1558 1558 1565 1574 1574 1574 1575 1574 1575 1576 1576 1576 1576 1575 1574 1575 1575 1575 1574 1573 1574 1576 1577 1579 1585 1588 1586 1587 1590 1594 1606 1617 1617 1617 1618 1616 1616 1613 1610 1611 1611 1611 1611 1611 1616 1616 1613 1614 1615 1615 1611 1607 1611 1609 1601 1600 1600 1599 1599 1599 1599 1599 1600 1599 1599 1599 1599 1599 1599 1598 1598
1556 1556 1556 1556 1556 1556 1556 1557 1556 1557 1557 1557 1557 1557 1558 1558 1559 1558 1557 1563 1573 1576 1576 1577 1576 1577 1577 1577 1578 1577 1575 1577 1579 1578 1577 1576 1575 1577 1579 1582 1586 1590 1592 1590 1588 1590 1599 1613 1618 1617 1617 1616 1615 1615 1612 1609 1612 1615 1614 1610 1611 1618 1616 1610 1611 1615 1615 1614 1610 1611 1607 1600 1598 1597 1596 1596 1596 1597 1598 1598 1598 1598 1598 1597 1598 1597 1597 1597
1556 1556 1557 1557 1557 1557 1558 1558 1558 1558 1559 1559 1558 1558 1559 1560 1559 1560 1560 1562 1571 1577 1577 1578 1578 1578 1579 1579 1580 1579 1577 1581 1583 1582 1581 1579 1579 1581 1583 1587 1589 1595 1601 1599 1596 1598 1609 1617 1618 1617 1617 1616 1613 1613 1615 1611 1611 1618 1619 1615 1614 1618 1618 1615 1615 1615 1614 1615 1614 1609 1600 1594 1596 1595 1593 1595 1596 1596 1596 1596 1596 1596 1597 1596 1596 1596 1595 1595
1557 1557 1557 1557 1558 1558 1558 1559 1559 1560 1560 1560 1559 1559 1560 1560 1560 1560 1560 1564 1573 1578 1578 1579 1579 1580 1581 1581 1582 1581 1580 1582 1585 1585 1584 1582 1582 1583 1586 1588 1590 1599 1606 1603 1600 1607 1616 1618 1617 1617 1616 1615 1613 1614 1622 1618 1611 1615 1620 1621 1621 1620 1620 1618 1615 1614 1610 1608 1613 1613 1598 1590 1595 1595 1593 1596 1597 1595 1595 1595 1595 1595 1595 1595 1594 1594 1594 1594
1557 1557 1557 1557 1558 1558 1559 1560 1560 1561 1561 1560 1560 1560 1561 1560 1561 1560 1561 1568 1578 1582 1581 1580 1582 1583 1583 1583 1582 1581 1581 1585 1589 1588 1586 1585 1584 1585 1587 1591 1594 1600 1606 1604 1603 1610 1618 1618 1617 1617 1615 1615 1615 1617 1625 1624 1614 1612 1619 1624 1624 1622 1620 1617 1614 1612 1607 1606 1614 1617 1606 1598 1595 1591 1595 1600 1598 1596 1595 1594 1593 1593 1594 1593 1594 1593 1593 1593
1557 1557 1557 1557 1558 1558 1559 1560 1560 1561 1561 1561 1560 1560 1561 1560 1561 1561 1562 1572 1583 1586 1585 1584 1585 1587 1586 1586 1583 1581 1584 1588 1590 1589 1588 1587 1587 1586 1588 1595 1597 1600 1606 1603 1602 1612 1618 1617 1617 1617 1615 1614 1614 1618 1624 1625 1616 1613 1622 1626 1623 1622 1619 1617 1615 1611 1612 1613 1615 1618 1614 1610 1602 1593 1598 1602 1596 1594 1594 1592 1592 1591 1592 1592 1593 1593 1592 1592
1557 1557 1557 1557 1558 1558 1559 1559 1560 1561 1560 1561 1561 1561 1561 1561 1562 1561 1564 1578 1589 1589 1589 1588 1588 1589 1589 1588 1585 1584 1588 1590 1590 1591 1590 1588 1588 1587 1590 1599 1601 1603 1607 1601 1602 1617 1620 1617 1618 1617 1615 1615 1618 1622 1624 1624 1619 1618 1625 1625 1623 1623 1620 1621 1617 1612 1619 1616 1608 1615 1618 1610 1601 1594 1599 1601 1594 1592 1591 1590 1590 1590 1591 1592 1591 1592 1591 1591
1558 1557 1557 1557 1557 1558 1558 1558 1559 1560 1560 1561 1560 1561 1562 1560 1561 1562 1567 1583 1593 1591 1591 1591 1589 1590 1590 1590 1588 1588 1591 1591 1592 1594 1593 1591 1591 1590 1593 1601 1602 1603 1606 1602 1607 1619 1620 1619 1620 1618 1618 1619 1622 1625 1624 1623 1622 1622 1625 1625 1624 1625 1623 1623 1618 1613 1619 1612 1602 1614 1618 1607 1596 1590 1593 1595 1591 1589 1588 1589 1589 1589 1590 1590 1590 1590 1590 1589
1558 1558 1557 1557 1557 1557 1558 1558 1559 1559 1560 1560 1560 1561 1561 1561 1563 1567 1575 1587 1593 1592 1593 1591 1592 1593 1591 1591 1591 1592 1594 1594 1596 1596 1594 1595 1595 1593 1597 1602 1602 1604 1608 1608 1613 1620 1621 1620 1621 1620 1621 1622 1623 1625 1624 1624 1623 1623 1625 1623 1622 1622 1622 1623 1621 1618 1612 1604 1605 1617 1620 1612 1599 1588 1587 1588 1586 1586 1587 1588 1588 1588 1589 1589 1588 1589 1588 1587
1559 1559 1558 1558 1557 1557 1558 1558 1558 1559 1559 1560 1561 1561 1561 1563 1567 1573 1583 1592 1594 1594 1594 1595 1597 1597 1595 1595 1596 1598 1598 1597 1599 1598 1597 1600 1599 1598 1601 1603 1603 1604 1606 1611 1616 1620 1621 1620 1621 1623 1622 1623 1624 1623 1624 1624 1624 1625 1623 1621 1616 1614 1617 1614 1615 1616 1604 1597 1610 1623 1623 1618 1605 1588 1583 1585 1586 1587 1586 1587 1587 1587 1587 1587 1587 1587 1586 1586
1560 1559 1559 1558 1558 1557 1557 1558 1558 1559 1559 1560 1561 1561 1562 1566 1573 1582 1591 1593 1594 1596 1598 1599 1600 1600 1600 1600 1602 1604 1603 1602 1603 1603 1605 1607 1608 1610 1611 1611 1611 1604 1602 1611 1616 1617 1621 1621 1623 1623 1622 1624 1622 1621 1623 1623 1624 1623 1621 1620 1610 1605 1607 1602 1603 1611 1603 1601 1618 1627 1622 1616 1602 1586 1581 1584 1585 1586 1586 1586 1586 1586 1586 1586 1586 1585 1584 1584
1561 1560 1559 1559 1558 1558 1557 1558 1558 1558 1559 1560 1561 1562 1563 1568 1581 1596 1599 1594 1595 1601 1603 1602 1602 1603 1602 1600 1604 1608 1606 1606 1607 1607 1609 1610 1611 1616 1618 1619 1620 1610 1605 1613 1615 1612 1615 1620 1623 1622 1622 1624 1622 1619 1617 1618 1621 1619 1619 1618 1609 1606 1607 1601 1606 1615 1607 1605 1621 1632 1624 1606 1591 1582 1582 1584 1584 1585 1585 1585 1585 1585 1585 1585 1584 1584 1583 1583
1561 1560 1560 1559 1558 1558 1558 1558 1558 1559 1560 1561 1561 1563 1565 1573 1589 1600 1600 1598 1602 1604 1604 1604 1603 1603 1603 1603 1608 1610 1607 1608 1610 1609 1609 1610 1610 1614 1616 1618 1620 1617 1614 1615 1615 1613 1609 1611 1620 1623 1622 1623 1624 1622 1619 1619 1621 1621 1627 1623 1613 1614 1612 1605 1610 1610 1607 1613 1621 1626 1616 1594 1583 1581 1583 1585 1584 1585 1585 1585 1585 1584 1584 1584 1583 1583 1582 1581
1562 1561 1561 1560 1559 1559 1559 1559 1559 1560 1560 1561 1563 1565 1570 1582 1594 1597 1595 1600 1604 1603 1603 1605 1602 1600 1603 1608 1611 1611 1607 1607 1611 1611 1610 1611 1613 1616 1618 1619 1620 1621 1616 1610 1615 1621 1614 1612 1622 1625 1624 1624 1623 1624 1625 1623 1619 1624 1630 1622 1616 1621 1619 1622 1633 1633 1634 1631 1618 1614 1606 1591 1586 1583 1584 1587 1584 1585 1586 1584 1586 1585 1584 1584 1582 1582 1581 1580
1563 1563 1562 1561 1560 1560 1559 1559 1560 1560 1561 1561 1563 1571 1582 1590 1595 1595 1596 1599 1600 1600 1601 1602 1601 1599 1602 1607 1610 1611 1610 1608 1610 1610 1612 1617 1620 1620 1622 1622 1623 1623 1619 1613 1615 1619 1613 1614 1625 1626 1624 1627 1624 1624 1627 1621 1617 1622 1623 1617 1623 1631 1626 1626 1639 1651 1651 1630 1609 1610 1601 1588 1587 1582 1583 1588 1584 1585 1586 1584 1585 1584 1583 1584 1581 1581 1581 1580
1563 1563 1562 1561 1561 1560 1560 1560 1560 1560 1561 1561 1565 1581 1595 1597 1597 1599 1600 1599 1599 1600 1599 1597 1602 1604 1603 1605 1609 1610 1609 1609 1610 1609 1611 1619 1619 1620 1624 1623 1623 1624 1623 1620 1618 1619 1615 1613 1623 1627 1622 1625 1626 1624 1626 1625 1623 1621 1616 1619 1627 1631 1629 1625 1624 1629 1633 1617 1605 1611 1605 1594 1591 1583 1581 1585 1583 1583 1585 1583 1584 1584 1582 1583 1581 1581 1580 1580
1564 1564 1563 1562 1561 1561 1561 1560 1561 1562 1560 1564 1578 1592 1598 1598 1599 1600 1600 1599 1599 1600 1597 1596 1603 1608 1607 1605 1607 1611 1610 1606 1609 1610 1612 1616 1617 1620 1624 1623 1623 1624 1624 1622 1619 1623 1621 1611 1618 1628 1624 1624 1628 1624 1622 1624 1627 1622 1619 1625 1626 1619 1620 1624 1621 1619 1622 1619 1610 1610 1613 1607 1596 1585 1580 1580 1581 1582 1583 1584 1584 1583 1582 1581 1580 1580 1580 1579
1564 1564 1563 1563 1563 1562 1562 1561 1562 1561 1559 1569 1585 1593 1596 1599 1600 1600 1600 1600 1600 1599 1597 1598 1604 1609 1610 1608 1607 1612 1612 1607 1610 1613 1612 1614 1616 1620 1624 1623 1623 1623 1623 1624 1621 1624 1625 1613 1612 1624 1627 1625 1625 1623 1620 1621 1625 1625 1624 1628 1628 1626 1625 1626 1631 1630 1625 1624 1620 1612 1605 1593 1586 1586 1581 1578 1581 1582 1582 1584 1583 1581 1581 1580 1580 1579 1579 1578
1564 1564 1564 1564 1563 1563 1563 1562 1561 1563 1566 1579 1590 1593 1596 1599 1599 1600 1600 1600 1600 1599 1599 1602 1605 1605 1608 1612 1610 1611 1614 1612 1613 1614 1613 1617 1617 1619 1624 1624 1623 1624 1623 1624 1623 1624 1626 1617 1611 1621 1627 1623 1621 1624 1624 1624 1626 1624 1622 1624 1626 1631 1635 1631 1637 1643 1632 1625 1630 1628 1607 1583 1580 1586 1581 1578 1581 1582 1582 1583 1581 1581 1580 1579 1579 1579 1578 1578
1564 1564 1565 1564 1564 1564 1563 1562 1567 1573 1580 1589 1593 1595 1598 1598 1598 1601 1600 1600 1601 1601 1601 1603 1604 1604 1606 1609 1609 1611 1613 1614 1615 1615 1615 1618 1617 1617 1622 1624 1624 1625 1622 1622 1624 1623 1623 1620 1615 1617 1619 1617 1623 1633 1635 1633 1633 1629 1625 1626 1625 1628 1630 1623 1628 1644 1645 1634 1633 1635 1616 1588 1580 1585 1583 1582 1582 1582 1583 1582 1580 1580 1579 1578 1579 1577 1577 1577
1565 1565 1566 1565 1565 1564 1563 1569 1578 1583 1586 1591 1593 1595 1598 1598 1599 1601 1600 1601 1601 1601 1603 1604 1605 1607 1608 1608 1610 1613 1613 1612 1615 1615 1615 1618 1620 1619 1623 1624 1624 1625 1622 1622 1625 1625 1625 1624 1619 1615 1618 1624 1630 1636 1636 1634 1637 1636 1633 1633 1632 1629 1626 1619 1619 1630 1642 1644 1644 1647 1629 1594 1579 1585 1585 1583 1583 1582 1583 1582 1580 1579 1577 1578 1578 1576 1576 1575
1565 1566 1567 1565 1565 1565 1565 1573 1584 1589 1591 1594 1596 1597 1598 1598 1599 1601 1601 1602 1602 1602 1602 1604 1606 1606 1608 1610 1611 1613 1612 1611 1614 1616 1616 1620 1623 1623 1624 1625 1624 1624 1624 1623 1624 1625 1625 1624 1618 1612 1618 1629 1634 1637 1638 1638 1637 1634 1633 1636 1634 1630 1628 1627 1628 1629 1634 1639 1640 1640 1624 1589 1576 1585 1584 1582 1584 1582 1582 1582 1580 1578 1577 1577 1577 1575 1575 1574
1567 1567 1567 1566 1566 1565 1565 1571 1581 1590 1595 1596 1596 1597 1598 1599 1600 1601 1602 1601 1602 1603 1602 1605 1607 1605 1608 1611 1611 1613 1614 1610 1612 1618 1619 1620 1622 1623 1624 1625 1624 1624 1624 1623 1624 1624 1621 1622 1620 1611 1609 1613 1618 1623 1626 1630 1634 1630 1631 1637 1634 1633 1635 1633 1636 1636 1629 1631 1632 1625 1608 1583 1577 1585 1583 1581 1584 1581 1581 1581 1578 1577 1576 1575 1575 1574 1574 1573
1567 1567 1568 1567 1566 1566 1567 1571 1576 1586 1594 1595 1595 1598 1598 1599 1601 1601 1602 1602 1603 1603 1603 1605 1607 1606 1609 1612 1611 1616 1617 1611 1611 1617 1620 1621 1623 1625 1624 1624 1625 1624 1624 1624 1625 1624 1622 1624 1622 1613 1609 1606 1604 1608 1612 1619 1629 1629 1631 1636 1633 1634 1632 1626 1631 1631 1622 1630 1637 1620 1598 1581 1578 1583 1582 1582 1583 1581 1580 1579 1576 1576 1575 1574 1574 1573 1572 1572
1568 1568 1569 1569 1568 1567 1570 1574 1575 1579 1588 1590 1592 1597 1598 1599 1601 1602 1602 1603 1603 1603 1603 1605 1606 1607 1609 1611 1610 1613 1616 1616 1615 1616 1618 1620 1622 1625 1625 1624 1625 1624 1624 1625 1624 1625 1627 1628 1626 1619 1615 1611 1607 1613 1621 1624 1624 1622 1625 1631 1632 1634 1632 1627 1628 1624 1619 1630 1629 1609 1597 1589 1581 1581 1582 1581 1581 1580 1579 1576 1574 1574 1573 1573 1573 1571 1571 1572
1568 1571 1573 1571 1570 1570 1573 1577 1577 1578 1583 1584 1587 1594 1597 1598 1601 1602 1602 1603 1603 1604 1604 1605 1606 1605 1606 1608 1608 1610 1615 1618 1616 1616 1619 1621 1623 1625 1624 1624 1625 1624 1625 1625 1624 1626 1624 1622 1628 1628 1620 1617 1618 1621 1627 1627 1623 1619 1620 1623 1627 1632 1633 1628 1621 1616 1619 1623 1609 1598 1604 1601 1585 1580 1581 1579 1579 1578 1576 1575 1573 1572 1572 1572 1572 1571 1571 1570
1569 1572 1576 1575 1573 1575 1576 1578 1580 1581 1582 1585 1589 1595 1596 1597 1599 1599 1600 1603 1603 1604 1604 1603 1605 1605 1605 1606 1604 1606 1612 1614 1613 1616 1619 1621 1623 1624 1623 1624 1625 1624 1625 1625 1624 1626 1622 1619 1628 1631 1621 1619 1624 1626 1628 1628 1625 1624 1622 1620 1623 1629 1629 1623 1617 1616 1618 1611 1595 1594 1605 1600 1587 1583 1581 1578 1577 1576 1574 1573 1572 1571 1571 1571 1570 1570 1569 1569
1571 1572 1576 1576 1576 1579 1580 1580 1582 1582 1583 1586 1590 1594 1595 1595 1595 1597 1600 1602 1602 1604 1603 1600 1601 1604 1606 1606 1604 1605 1608 1607 1607 1612 1616 1619 1621 1622 1620 1620 1623 1624 1625 1625 1625 1626 1623 1621 1629 1633 1622 1617 1624 1630 1630 1629 1625 1623 1622 1619 1620 1623 1623 1620 1616 1617 1616 1608 1598 1599 1605 1598 1587 1582 1579 1575 1574 1574 1572 1571 1571 1570 1570 1570 1569 1569 1568 1567
1571 1572 1574 1575 1577 1580 1582 1582 1583 1583 1585 1586 1587 1591 1594 1593 1593 1597 1599 1598 1598 1602 1603 1599 1600 1604 1606 1607 1605 1605 1607 1606 1605 1608 1611 1614 1616 1617 1616 1613 1618 1624 1625 1624 1627 1626 1622 1621 1630 1634 1621 1613 1623 1630 1629 1628 1626 1620 1618 1619 1620 1621 1622 1622 1619 1618 1617 1611 1604 1605 1608 1598 1582 1576 1577 1574 1571 1572 1570 1570 1570 1569 1569 1569 1567 1567 1566 1566
1571 1572 1573 1574 1578 1582 1583 1583 1584 1583 1584 1586 1585 1589 1593 1592 1593 1595 1597 1598 1597 1598 1601 1599 1600 1604 1607 1607 1606 1605 1607 1607 1607 1607 1609 1610 1609 1611 1612 1611 1615 1621 1623 1625 1626 1624 1623 1623 1629 1630 1615 1606 1619 1626 1621 1624 1625 1616 1610 1612 1615 1616 1615 1614 1613 1612 1609 1605 1603 1605 1602 1588 1575 1573 1574 1571 1570 1570 1569 1568 1569 1568 1567 1567 1565 1565 1565 1564
1572 1572 1573 1573 1577 1583 1583 1583 1585 1582 1582 1585 1586 1588 1590 1590 1592 1593 1593 1597 1599 1598 1600 1600 1600 1603 1605 1606 1606 1606 1606 1607 1608 1608 1609 1610 1609 1610 1611 1612 1614 1616 1620 1624 1625 1626 1626 1621 1622 1625 1611 1603 1616 1624 1620 1616 1605 1592 1588 1591 1599 1605 1606 1606 1606 1604 1601 1599 1597 1593 1583 1573 1572 1574 1572 1570 1569 1568 1567 1567 1567 1566 1565 1565 1564 1564 1564 1563